Orbital Elements at Epoch 2459000.5 (2020-May-31.0) TDB
Reference: JPL 21 (heliocentric ecliptic J2000)
Element | Value | Uncertainty (1-sigma) | Units |
e | .1092438056966062 | 4.3967e-08 | |
a | 2.244416287858035 | 8.6565e-09 | au |
q | 1.999227711004974 | 1.0238e-07 | au |
i | 8.440964474552693 | 4.5482e-06 | deg |
node | 79.75599747245435 | 2.9051e-05 | deg |
peri | 301.8903401918089 | 3.6465e-05 | deg |
M | 37.24294547975835 | 2.0537e-05 | deg |
tp | 2458873.444033263007 (2020-Jan-24.94403326) | 7.0068e-05 | TDB |
period | 1228.156028909618 3.36 | 7.1053e-06 1.945e-08 | d yr |
n | .2931223651766912 | 1.6958e-09 | deg/d |
Q | 2.489604864711097 | 9.6022e-09 | au |
|
| | Orbit Determination Parameters
Additional Information
|